This demonstration page uses our WeatherBlox Daily Observations layout. Learn more.

Left ArrowRight Arrow

44.8408, -93.29828

Hourly Observations for August 19, 2017

Temp ( °F °C ) Dew Point ( °F °C ) Humidity (%) Winds ( mph kmh ) Pressure ( in mb ) Visibility ( mi km ) Precip ( " mm )
12:53 am 00:53 Mostly Clear with Mist and Fog 63 17.2 59 15 87 87 Calm 29.92 1013 6 10 0.00 0.00
1:53 am 01:53 Clear with Mist and Fog 62 16.7 58 14.4 86 86 Calm 29.92 1013 6 10 0.00 0.00
2:53 am 02:53 Clear with Mist and Fog 62 16.7 58 14.4 86 86 Calm 29.91 1013 4 6 0.00 0.00
3:53 am 03:53 Partly Cloudy with Mist and Fog 62 16.7 58 14.4 86 86 Calm 29.91 1013 6 10 0.00 0.00
4:00 am 04:00 Mostly Cloudy with Mist and Fog 62 16.7 58 14.4 86 86 SW 3 6 29.91 1013 1 1 0.00 0.00
4:02 am 04:02 Mostly Clear with Mist and Fog 62 16.7 58 14.4 86 86 SW 3 6 29.91 1013 2 3 0.00 0.00
4:06 am 04:06 Mostly Clear with Mist and Fog 62 16.7 58 14.4 86 86 Calm 29.91 1013 5 8 0.00 0.00
4:53 am 04:53 Mostly Clear with Mist and Fog 61 16.1 58 14.4 90 90 SSW 3 6 29.91 1013 6 10 0.00 0.00
5:29 am 05:29 Mostly Clear with Mist and Fog 60 15.6 57 13.9 90 90 Calm 29.91 1013 6 10 0.00 0.00
5:36 am 05:36 Mostly Clear with Mist and Fog 60 15.6 57 13.9 90 90 Calm 29.91 1013 6 10 0.00 0.00
5:53 am 05:53 Mostly Clear with Mist and Fog 60 15.6 57 13.9 90 90 Calm 29.92 1013 6 10 0.00 0.00
6:44 am 06:44 Partly Cloudy with Mist and Fog 60 15.6 57 13.9 90 90 SSW 3 6 29.94 1014 5 8 0.00 0.00
6:53 am 06:53 Partly Cloudy with Mist and Fog 60 15.6 57 13.9 90 90 SSW 3 6 29.93 1014 5 8 0.00 0.00
7:37 am 07:37 Partly Cloudy with Mist and Fog 61 16.1 58 14.4 90 90 SSW 5 7 29.94 1014 5 8 0.00 0.00
7:53 am 07:53 Partly Cloudy with Mist and Fog 61 16.1 59 15 93 93 SSW 5 7 29.95 1014 5 8 0.00 0.00
8:04 am 08:04 Partly Cloudy with Mist and Fog 62 16.7 59 15 90 90 SSW 6 9 29.94 1014 5 8 0.00 0.00
8:18 am 08:18 Partly Cloudy with Mist and Fog 62 16.7 59 15 90 90 SSW 6 9 29.94 1014 5 8 0.00 0.00
8:53 am 08:53 Mostly Sunny 63 17.2 59 15 87 87 SW 7 11 29.96 1015 10 16 0.00 0.00
9:53 am 09:53 Mostly Sunny 64 17.8 59 15 84 84 SSW 6 9 29.97 1015 10 16 0.00 0.00
10:53 am 10:53 Sunny 69 20.6 60 15.6 73 73 VRB 5 7 29.97 1015 10 16 0.00 0.00
11:53 am 11:53 Sunny 73 22.8 60 15.6 64 64 WSW 7 11 29.96 1015 10 16 0.00 0.00
12:53 pm 12:53 Sunny 75 23.9 60 15.6 60 60 SSW 8 13 29.94 1014 10 16 0.00 0.00
1:53 pm 13:53 Mostly Sunny 78 25.6 61 16.1 56 56 WSW 3 6 29.93 1013 10 16 0.00 0.00
2:53 pm 14:53 Mostly Sunny 78 25.6 58 14.4 50 50 SW 6 9 29.91 1013 10 16 0.00 0.00
3:53 pm 15:53 Mostly Sunny 79 26.1 61 16.1 54 54 SSW 9 15 29.90 1012 10 16 0.00 0.00
4:53 pm 16:53 Mostly Sunny 80 26.7 60 15.6 51 51 VRB 5 7 29.88 1012 10 16 0.00 0.00
5:53 pm 17:53 Mostly Sunny 80 26.7 61 16.1 52 52 SSW 8 13 29.88 1012 10 16 0.00 0.00
6:53 pm 18:53 Partly Cloudy 79 26.1 61 16.1 54 54 S 8 13 29.87 1012 10 16 0.00 0.00
7:53 pm 19:53 Partly Cloudy 77 25 62 16.7 60 60 SSW 7 11 29.87 1012 10 16 0.00 0.00
8:53 pm 20:53 Mostly Clear 76 24.4 62 16.7 62 62 VRB 6 9 29.87 1012 10 16 0.00 0.00
9:53 pm 21:53 Mostly Clear 71 21.7 63 17.2 76 76 SSE 7 11 29.88 1012 10 16 0.00 0.00
10:53 pm 22:53 Mostly Clear 70 21.1 63 17.2 79 79 SSE 6 9 29.89 1012 10 16 0.00 0.00
11:53 pm 23:53 Clear 69 20.6 62 16.7 78 78 SE 6 9 29.89 1012 10 16 0.00 0.00

Powered by AerisWeather